Location: Star Camp Observatory
(34.2910°N, 116.3827°W)
Time: 04:19:02
(UTC-07:00)

Tiangong 2 - Visible Passes

Search period start: 20 March 2019 00:00
Search period end: 30 March 2019 00:00
Orbit: 379 x 390 km, 42.8° (Epoch: 19 March)

Date Brightness Start Highest point End Pass type
(mag) Time Alt. Az. Time Alt. Az. Time Alt. Az.
20 Mar 2.6 05:44:58 14° NW 05:47:20 32° NNE 05:50:14 10° E visible
21 Mar 3.5 04:48:22 21° NE 04:48:22 21° NE 04:50:19 10° ENE visible
21 Mar 1.0 06:21:31 10° WNW 06:24:41 82° SSW 06:27:52 10° ESE visible
22 Mar 1.7 05:24:07 33° NNW 05:25:11 52° NNE 05:28:18 10° ESE visible
23 Mar 4.2 04:27:46 15° ENE 04:27:46 15° ENE 04:28:29 10° E visible
23 Mar 1.7 06:00:01 14° W 06:02:22 39° SW 06:05:22 10° SE visible
24 Mar 2.0 05:03:48 44° SE 05:03:48 44° SE 05:06:05 10° ESE visible
25 Mar 2.7 05:40:02 19° SW 05:40:02 19° SW 05:42:18 10° S visible
27 Mar 3.4 20:11:21 10° S 20:11:59 13° SSE 20:11:59 13° SSE visible
28 Mar 3.0 20:47:08 10° SW 20:48:31 24° SW 20:48:31 24° SW visible
29 Mar 2.0 19:47:56 10° SSW 19:50:44 30° SE 19:52:35 17° E visible
29 Mar 4.4 21:24:31 10° W 21:24:51 12° W 21:24:51 12° W visible
